www.pogodaiklimat.ru

Погода и климат >> Архив погоды >> Россия >> Ненецкий АО >> Амдерма


АРХИВ ПОГОДЫ в Амдерме

Время (UTC), дата Ветер
(напр.,м/с)
 
Видим.   Явления Облачность Т
(С)
Тd
(С)
f
(%)
Тe
(С)
Тes
(С)
Комфортность P
(гПа)
Po
(гПа)
Тmin
(С)
Tmax
(С)
R
(мм)
R24
(мм)
S
(см)
21 9.06 С 3 10 км 1/0
[Ac trans]
-0.6 -0.6 100 -6 -6 1013.2 1006.8
00 10.06 З 2 10 км 9/0
[Ac trans]
-0.4 -0.4 100 -4 -4 1013.9 1007.5
03 10.06 СЗ 3 10 км 10/6 600 м
[Sc Ac und]
+0.4 0.0 97 -4 -4 1014.1 1007.7 -1.2 0
06 10.06 СЗ 2 10 км 9/9 300 м
[Cu Sc]
+0.7 -0.3 93 -3 -2 1014.3 1007.9
09 10.06 С 2 10 км 8/3 300 м
[Cu med, cong Ac lent Cc]
+1.5 -1.0 83 -2 +3 1014.2 1007.9
12 10.06 СВ 3 10 км 9/9 600 м
[Sc Ac lent]
+1.2 -0.9 86 -3 -3 1013.6 1007.2
15 10.06 В 4 10 км 9/5 1000 м
[Sc Ac trans]
+0.6 -1.8 84 -5 -4 1012.8 1006.4 +1.5
18 10.06 В 3 10 км 9/8 1000 м
[Sc Ac lent]
+0.1 -2.0 86 -5 -5 1011.8 1005.4
21 10.06 В 4 10 км 9/8 1000 м
[Sc Ac lent]
-0.5 -1.6 92 -6 -6 1011.1 1004.7
00 11.06 В 3 10 км 10/8 1000 м
[Sc Ac und]
-0.4 -2.1 88 -5 -5 1010.1 1003.8
03 11.06 В 3 10 км 9/9 300 м
[Cu Sc]
+0.2 -0.6 94 -5 -4 1009.8 1003.4 -0.6 0
06 11.06 В 5 10 км 9/1 300 м
[Cu med, cong Ac trans Ci fib]
+0.5 -1.8 85 -5 -3 1009.4 1003.0
09 11.06 СВ 3 10 км 9/3 300 м
[Sc Ac trans Ci fib]
+1.8 -1.8 77 -2 +1 1008.9 1002.6
12 11.06 С 2 10 км 8/3 600 м
[Sc Ac trans]
+1.2 -1.7 81 -2 0 1008.8 1002.4
15 11.06 СЗ 3 10 км 1/1 600 м
[Sc]
+1.0 -2.6 77 -3 -2 1008.0 1001.7 +2.0
18 11.06 СЗ 5 10 км 10/0
[Ac und]
+0.3 -2.6 81 -6 -6 1006.8 1000.5
21 11.06 ЮЗ 4 10 км 10/0
[Ac und]
-0.2 -2.6 84 -6 -6 1004.8 998.5
00 12.06 СЗ 4 10 км {ливн. осадки} 9/9 300 м
[Cu Sc]
+0.3 -1.1 90 -5 -5 1003.7 997.3
03 12.06 СЗ 2 10 км 10/10 300 м
[Cu Sc]
+0.6 -0.9 90 -3 -3 1002.5 996.2 -0.3 0.0 0
06 12.06 СЗ 4 10 км 9/9 300 м
[Cu Sc]
+1.6 -0.2 88 -4 -3 1001.5 995.2
09 12.06 СЗ 5 4000 м слаб. ливневой снег 9/8 300 м
[Cb cap Ac trans]
+0.7 +0.4 98 -5 -5 1001.5 995.2
12 12.06 С 5 10 км {ливн. осадки} 9/8 300 м
[Cu Sc Ac trans]
+0.8 +0.2 96 -5 -5 1001.4 995.1
15 12.06 С 6
{11}
10 км слаб. ливневой снег 9/9 300 м
[Cb cap Ac trans]
-0.6 -1.2 96 -8 -7 1002.1 995.8 +2.0 0.1
18 12.06 С 5
{11}
10 км {ливн. осадки} 10/10 300 м
[Sc]
-0.7 -2.3 89 -7 -7 1002.0 995.6
21 12.06 СЗ 4 4000 м слаб. ливневой снег 10/10 300 м
[Cb cap]
-0.6 -0.9 98 -6 -6 1000.5 994.2
00 13.06 С 3 10 км слаб. ливневой снег 10/8 300 м
[Cb cap As trans]
-1.7 -1.8 99 -7 -7 1000.2 993.8
03 13.06 С 5 10 км {ливн. осадки} 10/6 300 м
[Cu med, cong As trans]
-1.4 -1.8 97 -8 -8 1000.6 994.3 -1.7 0.4 <0.5
06 13.06 С 6-10
{10}
10 км {ливн. осадки} 9/6 300 м
[Cu Sc Ac trans]
-0.7 -3.7 80 -7 -7 1001.7 995.4
09 13.06 С 8-11
{11}
10 км 10/10 300 м
[Cu Sc]
-0.6 -2.6 86 -8 -8 1002.9 996.5
12 13.06 С 6-11
{12}
10 км 10/10 300 м
[Cu Sc]
-0.7 -2.9 85 -8 -8 1003.5 997.2
15 13.06 С 8-11
{11}
10 км 9/9 300 м
[Sc]
-1.0 -3.4 84 -9 -9 1003.6 997.2 -0.4
18 13.06 С 8-11
{11}
10 км 6/3 300 м
[Sc Ac trans Ci fib]
-1.6 -3.2 89 -10 -10 1003.7 997.3
21 13.06 С 7
{12}
10 км 10/10 600 м
[Sc]
-1.7 -3.3 89 -9 -9 1003.8 997.4
00 14.06 С 5
{12}
10 км {ливн. осадки} 9/6 300 м
[Cu med, cong Ac trans]
-1.2 -1.9 95 -8 -8 1003.5 997.1
03 14.06 С 5
{11}
10 км 9/8 600 м
[Sc Ac trans]
-1.1 -1.5 97 -8 -7 1003.4 997.0 -2.0 0.0 0
06 14.06 СЗ 5 10 км 8/1 300 м
[Cu med, cong As op Ci sp]
+0.6 -0.4 93 -5 -3 1003.0 996.7
09 14.06 СЗ 5 10 км 3/1 300 м
[Cu med, cong Ci sp]
+1.2 +0.3 94 -5 -0 1002.5 996.2
12 14.06 СЗ 4 10 км 8/1 300 м
[Cu med, cong Ac lent Cc]
+1.7 -0.1 88 -3 -1 1002.0 995.7
15 14.06 СЗ 5 10 км слаб. ливневой снег 10/10 300 м
[Cb cap]
+1.0 +0.3 95 -5 -5 1000.6 994.3 +1.8 0.0
18 14.06 З 5 10 км слаб. ливневой дождь со снегом 10/10 300 м
[Cb cap]
+0.4 +0.4 100 -6 -6 998.6 992.3
21 14.06 З 5 4000 м слаб. ливневой снег 10/10 300 м
[Cb cap]
+0.3 +0.3 100 -6 -6 996.6 990.3
00 15.06 З 3 4000 м слаб. ливневой снег 10/10 300 м
[Cb cap]
0.0 0.0 100 -5 -5 995.5 989.2
03 15.06 СЗ 2 500 м слаб. ливневой снег {туман} туман ?/? +0.3 +0.3 100 -4 -4 995.4 -0.1 1 0
06 15.06 СЗ 2 <100 м туман {ливн. осадки, снег} ?/? +0.3 +0.3 100 -4 -4 996.1 989.8
09 15.06 СЗ 3 10 км {ливн. осадки, туман} 10/10 600 м
[Sc]
+0.7 +0.7 100 -4 -4 997.4 991.1
12 15.06 СЗ 4 10 км {ливн. осадки, туман} 9/9 300 м
[Cu Sc]
+1.1 +0.8 98 -4 -4 998.1 991.8
15 15.06 З 3 10 км в посл. час ливневой снег 9/9 300 м
[Cu Sc]
+0.4 +0.2 99 -4 -4 998.0 991.7 +1.7 0.3
18 15.06 ЮЗ 3 4000 м слаб. ливневой снег 9/9 300 м
[Cb cap]
+0.3 +0.3 100 -5 -5 997.4 991.1
21 15.06 ЮЗ 5 10 км {ливн. осадки} 9/0
[Ac trans]
-0.1 -0.1 100 -7 -7 995.8 989.5
00 16.06 Ю 8-11
{11}
4000 м слаб. ливневой снег 10/10 300 м
[Cb cap]
+0.1 +0.1 100 -8 -8 994.2 987.9
03 16.06 ЮЗ 7-10
{14}
4000 м в посл. час морось {ливн. осадки} 10/10 300 м
[St]
+1.4 +1.4 100 -6 -6 992.8 986.6 -0.8 0.3 0
06 16.06 ЮЗ 6
{10}
10 км слаб. ливневой дождь {морось} 10/10 300 м
[Cb cap]
+2.1 +1.8 98 -4 -4 992.5 986.3
09 16.06 Ю 8-11
{12}
10 км {ливн. осадки} 10/9 300 м
[Cu Sc As trans]
+3.0 +1.9 92 -4 -4 992.0 985.8
12 16.06 ЮЗ 7-11
{11}
10 км {ливн. осадки} 10/10 300 м
[Cu Sc]
+3.1 +2.2 94 -3 -3 991.4 985.2
15 16.06 З 6
{11}
10 км {ливн. осадки} 10/8 300 м
[Cu Sc As trans]
+2.0 +1.3 95 -4 -4 991.5 985.3 +4.0 0.0

 

Местоположение метеостанции Амдерма (Ненецкий АО, Россия): широта 69.77 долгота 61.68 высота над уровнем моря 48 м.

В архиве по умолчанию представлена погода в Амдерме за последнюю неделю. Архивные данные за месяц целиком и за предыдущие месяцы, начиная с января 2011 года, Вы можете получить, выбрав интересующий диапазон дат из раскрывающегося списка и нажав кнопку "Ввод!".


*Определитесь, кто Вы:
робот инопланетянин человек

Внимание! Время в таблицах - всемирное. Для получения местного времени необходимо прибавить поправку, которая равна 3 ч.

Смотрите также архив погоды в соседних городах и на ближайших метеорологических станциях:

Погода на Мысе Белый Нос (Ненецкий АО, Россия) (60 км)
Погода в Имени Федорова (Ненецкий АО, Россия) (124 км)
Погода в Усть-Каре (Ненецкий АО, Россия) (139 км)
Погода в Варандее (Ненецкий АО, Россия) (179 км)
Погода в Марресале (Ямало-Ненецкий АО, Россия) (197 км)
Погода в Воркуте (Коми, Россия) (271 км)
Погода на Мысе Константиновском (Ненецкий АО, Россия) (279 км)
Погода в Хорей-Вере (Ненецкий АО, Россия) (300 км)
Погода в Елецкой (Коми, Россия) (318 км)
Погода в Ходоварихе (Ненецкий АО, Россия) (325 км)

Пояснения к столбцам:

Ветер - указаны скорость ветра в м/с - средняя за 10 мин, порывы в срок и между сроками (в фигурных скобках) и направление, откуда дует ветер: С - северный, СВ - северо-восточный, В - восточный, ЮВ - юго-восточный, Ю - южный, ЮЗ - юго-западный, З - западный, СЗ - северо-западный.
Видимость - горизонтальная дальность видимости в метрах или километрах. При видимости от 1 до 10 км при отсутствии осадков обычно наблюдается дымка, при ухудшении видимости до 1 км и менее - туман. В сухую погоду видимость может ухудшаться дымом, пылью или мглою.
Явления - указаны атмосферные явления, наблюдавшиеся в срок или в последний час перед сроком; фигурными скобками обозначены явления, наблюдавшиеся между сроками (за 1-3 часа до срока); квадратными скобками обозначены град или гололедные отложения с указанием их диаметра в мм.
Облачность - указаны через наклонную черту общая и нижняя облачность в баллах и высота нижней границы облаков в метрах; квадратными скобками обозначены формы облаков: Ci - перистые, Cs - перисто-слоистые, Cc - перисто-кучевые, Ac - высококучевые, As - высокослоистые, Sc - слоисто-кучевые, Ns - слоисто-дождевые, Cu - кучевые, Cb - кучево-дождевые. Подробнее классификацию облаков см. в Атласе облаков (PDF).
T - Температура воздуха - температура, измеренная на высоте 2 м над землей.
Td - Температура точки росы - температура, при понижении до которой содержащийся в воздухе водяной пар достигнет насыщения.
f - Относительная влажность воздуха - влажноcть воздуха, измеренная на высоте 2 м над землей.
Te - Эффективная температура - температура, которую ощущает одетый по сезону человек в тени. Характеристика душности погоды. При расчете учитывается влияние влажности воздуха и скорости ветра на теплоощущения человека.
Tes - Эффективная температура на солнце - температура, которую ощущает человек, с поправкой на солнечный нагрев. Характеристика знойности погоды. Зависит от высоты солнца над горизонтом, облачности и скорости ветра. Ночью, в пасмурную погоду, а также при ветре 12 м/с и более поправка равна нулю.
P - Атмосферное давление - приведенное к уровню моря атмосферное давление.
Po - Атмосферное давление - измеренное на уровне метеостанции атмосферное давление.
Tmin - Минимальная температура - минимум температуры воздуха на высоте 2 м над землей.
Tmax - Максимальная температура - максимум температуры воздуха на высоте 2 м над землей.
R - Количество осадков - Количество выпавших осадков за период времени, мм. При наведении курсора мыши на число - период времени, за который выпало указанное количество осадков.
R24 - Количество осадков - Количество выпавших осадков за 24 часа, мм.
S - Снежный покров - Высота снежного покрова, см. При наведении курсора мыши на число - состояние снежного покрова и степень покрытия местности в баллах.